Home > Time Zones > World Clock > Weather > Aktau > Past weeks

Flag for Kazakhstan Weather past 2 weeks in Aktau, Kazakhstan

Now
84 °F

Clear.


Feels Like: 81 °F
Forecast: 82 / 95 °F
Wind: 10 mph from Northeast

Location: Aktau

Current Time: Aug 4, 2015 at 5:08:42 AM

Latest Report: Aug 4, 2015 at 4:30 AM


Visibility: 10 mi

Pressure: 29.92 "Hg

Humidity: 15%

Dew point: 32 °F

Location of AktauLocation

Historic Weather in Aktau — Graph

°F

Aktau temperature yesterday

Maximum temperature yesterday: 109 °F (at 2:00 PM)
Minimum temperature yesterday: 81 °F (at 4:00 AM)
Average temperature yesterday: 96 °F

Past Weeks' High & Low Weather Summary

 TemperatureHumidityPressure
High109 °F (Aug 3, 2:00 PM)88% (Jul 22, 6:00 AM)30.04 "Hg (Jul 22, 6:00 AM)
Low57 °F (Jul 24, 6:00 AM)7% (Aug 3, 5:30 PM)29.65 "Hg (Jul 27, 7:00 PM)
Average82 °F34%29.86 "Hg
* Reported Jul 20 4:00 AM — Aug 4 4:00 AM, Aktau, Weather by CustomWeather, © 2015

Note: Actual official high and low records may vary slightly from our data, if they occured in-between our weather recording intervals... More about our weather records

Advertising

Aktau weather history for previous 24 hours

 ConditionsComfort  
Time TempWeatherWind HumidityBarometerVisibility
4:00 AM
Tue, Aug 4
84 °FClear.10 mph16%29.92 "Hg10 mi
3:30 AM84 °FClear.13 mph18%29.92 "Hg10 mi
3:00 AM84 °FClear.13 mph20%29.92 "Hg10 mi
2:30 AM84 °FClear.15 mph19%29.92 "Hg10 mi
2:00 AM84 °FClear.15 mph18%29.92 "Hg10 mi
1:30 AM84 °FClear.15 mph16%29.92 "Hg10 mi
1:00 AM86 °FClear.15 mph15%29.92 "Hg10 mi
12:30 AM86 °FClear.17 mph15%29.92 "Hg10 mi
12:00 AM88 °FClear.17 mph15%29.92 "Hg10 mi
11:30 PM
Mon, Aug 3
90 °FClear.20 mph16%29.92 "Hg10 mi
11:00 PM90 °FClear.20 mph17%29.92 "Hg10 mi
10:30 PM91 °FSunny.17 mph17%29.92 "Hg10 mi
10:00 PM93 °FSunny.17 mph17%29.92 "Hg10 mi
9:30 PM95 °FSunny.20 mph18%29.92 "Hg10 mi
9:00 PM97 °FSunny.20 mph17%29.92 "Hg10 mi
8:30 PM99 °FSunny.22 mph15%29.89 "Hg10 mi
8:00 PM102 °FSunny.22 mph13%29.89 "Hg10 mi
7:30 PM104 °FSunny.24 mph12%29.89 "Hg10 mi
7:00 PM106 °FSunny.20 mph9%29.89 "Hg10 mi
6:30 PM108 °FSunny.20 mph8%29.89 "Hg10 mi
6:00 PM108 °FSunny.17 mph8%29.89 "Hg10 mi
5:30 PM109 °FSunny.20 mph7%29.89 "Hg10 mi
5:00 PM108 °FPassing clouds.15 mph8%29.89 "HgN/A
4:30 PM109 °FSunny.17 mph8%29.89 "Hg10 mi
4:00 PM109 °FSunny.17 mph8%29.89 "Hg10 mi
3:30 PM109 °FSunny.13 mph8%29.89 "Hg10 mi
2:30 PM108 °FPassing clouds.15 mph8%29.89 "HgN/A
2:00 PM109 °FPassing clouds.13 mph8%29.92 "HgN/A
1:30 PM108 °FSunny.15 mph9%29.92 "Hg10 mi
1:00 PM108 °FPassing clouds.13 mph8%29.92 "HgN/A
12:30 PM108 °FSunny.10 mph10%29.92 "Hg10 mi
12:00 PM106 °FSunny.10 mph12%29.92 "Hg10 mi
11:30 AM106 °FSunny.10 mph10%29.92 "Hg10 mi
11:00 AM106 °FPassing clouds.3 mph9%29.92 "HgN/A
10:30 AM102 °FPassing clouds.6 mph13%29.92 "HgN/A
10:00 AM100 °FSunny.8 mph15%29.92 "Hg10 mi
9:30 AM97 °FSunny.8 mph19%29.92 "Hg10 mi
9:00 AM93 °FSunny.10 mph21%29.92 "Hg10 mi
8:30 AM90 °FSunny.10 mph26%29.92 "Hg10 mi
8:00 AM86 °FClear.10 mph29%29.92 "Hg10 mi
7:30 AM84 °FClear.10 mph29%29.92 "Hg10 mi
7:00 AM82 °FClear.10 mph28%29.92 "Hg10 mi
6:30 AM81 °FClear.8 mph30%29.92 "Hg10 mi
6:00 AM81 °FClear.10 mph30%29.92 "Hg10 mi
5:30 AM82 °FClear.8 mph26%29.92 "Hg10 mi
5:00 AM81 °FClear.8 mph26%29.92 "Hg10 mi
Weather by CustomWeather, © 2015

See weather overviewHow to use our weather pages